This demonstration page uses our WeatherBlox Daily Observations layout. Learn more.

Left ArrowRight Arrow

44.8408, -93.29828

Hourly Observations for March 12, 2017

Temp ( °F °C ) Dew Point ( °F °C ) Humidity (%) Winds ( mph kmh ) Pressure ( in mb ) Visibility ( mi km ) Precip ( " mm )
12:53 am 00:53 Clear 14 -10 -4 -20 44 44 N 6 9 30.57 1035 10 16 0.00 0.00
1:53 am 01:53 Clear 13 -10.6 -4 -20 46 46 N 5 7 30.58 1035 10 16 0.00 0.00
3:53 am 03:53 Clear 13 -10.6 -3 -19.4 49 49 NNE 5 7 30.55 1034 10 16 0.00 0.00
4:53 am 04:53 Clear 13 -10.6 -2 -18.9 51 51 ENE 6 9 30.54 1034 10 16 0.00 0.00
5:53 am 05:53 Mostly Clear 14 -10 -3 -19.4 47 47 ENE 5 7 30.53 1034 10 16 0.00 0.00
6:53 am 06:53 Mostly Cloudy 14 -10 -3 -19.4 47 47 E 6 9 30.53 1034 10 16 0.00 0.00
7:53 am 07:53 Mostly Cloudy 14 -10 -3 -19.4 47 47 ESE 8 13 30.51 1033 10 16 0.00 0.00
8:53 am 08:53 Cloudy 16 -8.9 -1 -18.3 47 47 ESE 9 15 30.50 1033 10 16 0.00 0.00
9:53 am 09:53 Cloudy 17 -8.3 0 -17.8 47 47 SE 8 13 30.50 1033 10 16 0.00 0.00
10:53 am 10:53 Cloudy 19 -7.2 0 -17.8 43 43 ESE 10 17 30.47 1032 10 16 0.00 0.00
11:53 am 11:53 Cloudy 21 -6.1 -1 -18.3 38 38 ESE 12 19 30.44 1031 10 16 0.00 0.00
12:53 pm 12:53 Cloudy 22 -5.6 0 -17.8 38 38 SE 12 19 30.42 1030 10 16 0.00 0.00
1:53 pm 13:53 Cloudy with Light Snow 22 -5.6 3 -16.1 44 44 SE 13 20 30.38 1029 9 14 0.00 0.03
2:33 pm 14:33 Cloudy with Light Snow 21 -6.1 8 -13.3 57 57 ESE 16 26 30.36 1028 2 3 0.00 0.03
2:40 pm 14:40 Cloudy with Light Snow 20 -6.7 11 -11.7 68 68 ESE 13 20 30.39 1029 2 2 0.00 0.03
2:53 pm 14:53 Mostly Cloudy with Light Snow 19 -7.2 12 -11.1 74 74 E 13 20 30.35 1028 1 2 0.01 0.25
2:57 pm 14:57 Mostly Cloudy with Light Snow 20 -6.7 13 -10.6 74 74 ESE 13 20 30.36 1028 1 1 0.00 0.03
3:13 pm 15:13 Mostly Cloudy with Light Snow 19 -7.2 13 -10.6 77 77 E 10 17 30.36 1028 1 1 0.01 0.25
3:53 pm 15:53 Mostly Cloudy with Snow 19 -7.2 14 -10 81 81 E 8 13 30.35 1028 1 1 0.04 1.02
4:13 pm 16:13 Mostly Cloudy with Snow 20 -6.7 15 -9.4 81 81 ENE 9 15 30.36 1028 1 1 0.01 0.25
4:19 pm 16:19 Mostly Cloudy with Heavy Snow 19 -7.2 14 -10 81 81 E 12 19 30.39 1029 0 0 0.02 0.51
4:30 pm 16:30 Mostly Cloudy with Snow 19 -7 14 -10 79 79 E 12 19 30.39 1029 1 1 0.00 0.00
4:53 pm 16:53 Mostly Cloudy with Snow 19 -7.2 15 -9.4 84 84 E 9 15 30.37 1029 1 1 0.05 1.27
5:03 pm 17:03 Mostly Cloudy with Snow 19 -7 16 -9 86 86 ENE 8 13 30.39 1029 0 0 0.00 0.00
5:20 pm 17:20 Mostly Cloudy with Snow 19 -7 16 -9 86 86 E 9 15 30.36 1028 1 1 0.00 0.00
5:38 pm 17:38 Mostly Cloudy with Snow 19 -7 16 -9 86 86 ENE 9 15 30.36 1028 1 1 0.00 0.00
5:53 pm 17:53 Mostly Cloudy with Light Snow 20 -6.7 15 -9.4 81 81 ENE 10 17 30.36 1028 1 1 0.05 1.27
6:21 pm 18:21 Cloudy with Light Snow 19 -7.2 14 -10 81 81 E 13 20 30.36 1028 1 2 0.02 0.51
6:53 pm 18:53 Cloudy with Light Snow 19 -7.2 15 -9.4 84 84 ENE 8 13 30.37 1029 1 2 0.02 0.51
7:02 pm 19:02 Mostly Cloudy with Light Snow 19 -7 16 -9 86 86 ENE 10 17 30.39 1029 1 1 0.00 0.00
7:20 pm 19:20 Mostly Cloudy with Light Snow 19 -7 16 -9 86 86 E 9 15 30.39 1029 1 2 0.00 0.00
7:31 pm 19:31 Mostly Cloudy with Light Snow 20 -6.7 15 -9.4 81 81 E 13 20 30.39 1029 1 1 0.02 0.51
7:45 pm 19:45 Mostly Cloudy with Light Snow 19 -7.2 15 -9.4 84 84 ENE 9 15 30.39 1029 1 1 0.03 0.76
7:53 pm 19:53 Mostly Cloudy with Light Snow 19 -7.2 15 -9.4 84 84 ENE 12 19 30.38 1029 1 2 0.03 0.76
8:31 pm 20:31 Cloudy with Light Snow 19 -7.2 15 -9.4 84 84 ENE 10 17 30.39 1029 1 2 0.02 0.51
8:35 pm 20:35 Cloudy with Light Snow 19 -7.2 15 -9.4 84 84 ENE 14 22 30.39 1029 2 2 0.02 0.51
8:53 pm 20:53 Cloudy with Light Snow 20 -6.7 15 -9.4 81 81 ENE 14 22 30.37 1029 2 3 0.02 0.51
9:20 pm 21:20 Cloudy with Light Snow 19 -7 14 -10 79 79 ENE 13 20 30.39 1029 3 5 0.00 0.00
9:39 pm 21:39 Cloudy with Light Snow 20 -6.7 14 -10 78 78 ENE 13 20 30.39 1029 2 3 0.01 0.25
9:50 pm 21:50 Cloudy with Light Snow 19 -7 14 -10 79 79 ENE 13 20 30.39 1029 2 3 0.00 0.00
9:53 pm 21:53 Cloudy with Light Snow 19 -7.2 14 -10 81 81 ENE 14 22 30.37 1029 2 3 0.01 0.25
10:00 pm 22:00 Cloudy with Light Snow 19 -7 16 -9 86 86 ENE 13 20 30.39 1029 2 2 0.00 0.00
10:19 pm 22:19 Cloudy with Light Snow 19 -7.2 14 -10 81 81 ENE 14 22 30.39 1029 2 3 0.01 0.25
10:36 pm 22:36 Cloudy with Light Snow 19 -7.2 14 -10 81 81 NE 13 20 30.39 1029 3 5 0.01 0.25
10:53 pm 22:53 Cloudy with Light Snow 19 -7.2 14 -10 81 81 NE 10 17 30.37 1029 4 6 0.01 0.25
11:53 pm 23:53 Cloudy 19 -7.2 14 -10 81 81 NE 13 20 30.37 1028 10 16 0.00 0.03

Powered by AerisWeather